This demonstration page uses our WeatherBlox Daily Observations layout. Learn more.

38.89511, -77.03637

Hourly Observations for January 6, 2015

Temp ( °F °C ) Dew Point ( °F °C ) Humidity (%) Winds ( mph kmh ) Pressure ( in mb ) Visibility ( mi km ) Precip ( " mm )
12:52 am 00:52 Mostly Cloudy 28 -2 5 -15 37 37 NNE 9 15 30.42 1030 10 16.09344 0 0
1:52 am 01:52 Cloudy 28 -2 5 -15 37 37 NE 7 11 30.42 1030 10 16.09344 0 0
2:52 am 02:52 Cloudy 28 -2 5 -15 37 37 E 7 11 30.42 1030 10 16.09344 0 0
3:52 am 03:52 Cloudy 28 -2 3 -16 34 34 ESE 5 7 30.42 1030 10 16.09344 0 0
4:42 am 04:42 Cloudy with Light Snow 27 -3 14 -10 59 59 N 7 11 30.42 1030 3 4.828032 0 0
4:50 am 04:50 Cloudy with Light Snow 27 -3 16 -9 64 64 N 8 13 30.42 1030 2 3.218688 0 0
4:52 am 04:52 Cloudy with Light Snow 25 -4 16 -9 69 69 N 7 11 30.42 1030 2 3.218688 0.001 0.001
5:06 am 05:06 Cloudy with Light Snow 25 -4 18 -8 74 74 NNW 8 13 30.42 1030 1.5 2.414016 0 0
5:13 am 05:13 Mostly Cloudy with Scattered Snow Showers 25 -4 18 -8 74 74 N 8 13 30.42 1030 0.75 1.207008 0.01 0.254
5:34 am 05:34 Mostly Cloudy with Snow 25 -4 19 -7 80 80 NNW 3 6 30.39 1029 0.5 0.804672 0 0
5:44 am 05:44 Mostly Cloudy with Scattered Snow Showers 25 -4 19 -7 80 80 Calm 30.39 1029 0.75 1.207008 0 0
5:48 am 05:48 Mostly Cloudy with Scattered Snow Showers 25 -4 19 -7 80 80 Calm 30.39 1029 0.75 1.207008 0 0
5:52 am 05:52 Mostly Cloudy with Snow 25 -4 19 -7 80 80 Calm 30.39 1029 0.5 0.804672 0.05 1.27
6:20 am 06:20 Cloudy with Light Snow 25 -4 18 -8 74 74 ESE 8 13 30.36 1028 2.5 4.02336 0 0
6:33 am 06:33 Cloudy with Light Snow 25 -4 18 -8 74 74 ESE 5 7 30.36 1028 2.5 4.02336 0.02 0.508
6:52 am 06:52 Cloudy with Light Snow 25 -4 18 -8 74 74 ESE 5 7 30.36 1028 2 3.218688 0.02 0.508
6:59 am 06:59 Cloudy with Light Snow 25 -4 18 -8 74 74 ESE 6 9 30.36 1028 1 1.609344 0.01 0.254
7:13 am 07:13 Mostly Cloudy with Scattered Snow Showers 25 -4 18 -8 74 74 E 6 9 30.36 1028 0.75 1.207008 0.02 0.508
7:41 am 07:41 Cloudy with Snow 25 -4 18 -8 74 74 E 7 11 30.39 1029 0.5 0.804672 0.04 1.016
7:50 am 07:50 Mostly Cloudy with Snow 25 -4 18 -8 74 74 E 5 7 30.39 1029 0.5 0.804672 0 0
7:52 am 07:52 Mostly Cloudy with Snow 25 -4 18 -8 74 74 ESE 5 7 30.39 1029 0.5 0.804672 0.05 1.27
8:11 am 08:11 Mostly Cloudy with Heavy Snow 25 -4 18 -8 74 74 E 5 7 30.39 1029 0.25 0.402336 0.02 0.508
8:52 am 08:52 Cloudy with Snow 25 -4 19 -7 80 80 ESE 6 9 30.39 1029 0.5 0.804672 0.05 1.27
9:21 am 09:21 Cloudy with Light Snow 25 -4 18 -8 74 74 ESE 3 6 30.36 1028 0.75 1.207008 0.01 0.254
9:52 am 09:52 Cloudy with Light Snow 25 -4 19 -7 80 80 ESE 3 6 30.33 1027 0.75 1.207008 0.02 0.508
10:14 am 10:14 Cloudy with Light Snow 25 -4 19 -7 80 80 ESE 3 6 30.3 1026 2 3.218688 0 0
10:24 am 10:24 Cloudy with Light Snow 25 -4 19 -7 80 80 Calm 30.3 1026 3 4.828032 0 0
10:36 am 10:36 Cloudy with Light Snow 25 -4 19 -7 80 80 Calm 30.3 1026 3 4.828032 0 0
10:52 am 10:52 Cloudy with Light Snow 27 -3 19 -7 74 74 Calm 30.27 1025 3 4.828032 0.01 0.254
11:16 am 11:16 Mostly Cloudy with Scattered Snow Showers 27 -3 19 -7 74 74 SE 5 7 30.24 1024 6 9.656064 0 0
11:24 am 11:24 Cloudy 27 -3 19 -7 74 74 N 5 7 30.24 1024 7 11.265408 0 0
11:45 am 11:45 Cloudy 27 -3 19 -7 74 74 SSE 6 9 30.21 1023 10 16.09344 0.001 0.001
11:52 am 11:52 Cloudy 27 -3 19 -7 74 74 SSE 5 7 30.21 1023 10 16.09344 0.001 0.001
12:52 pm 12:52 Cloudy 28 -2 19 -7 69 69 Calm 30.18 1022 10 16.09344 0 0
1:00 pm 13:00 Cloudy 28 -2 19 -7 69 69 Calm 30.15 1021 10 16.09344 0 0
1:52 pm 13:52 Cloudy 28 -2 19 -7 69 69 N 5 7 30.15 1021 10 16.09344 0 0
2:52 pm 14:52 Cloudy 30 -1 19 -7 64 64 Calm 30.15 1021 10 16.09344 0 0
3:52 pm 15:52 Partly Cloudy 30 -1 19 -7 64 64 N 5 7 30.15 1021 10 16.09344 0 0
4:52 pm 16:52 Partly Cloudy 30 -1 19 -7 64 64 WNW 3 6 30.15 1021 10 16.09344 0 0
5:52 pm 17:52 Mostly Clear 30 -1 18 -8 59 59 W 5 7 30.18 1022 10 16.09344 0 0
6:52 pm 18:52 Mostly Clear 30 -1 18 -8 59 59 NW 6 9 30.15 1021 10 16.09344 0 0
7:52 pm 19:52 Mostly Clear 28 -2 18 -8 64 64 Calm 30.18 1022 10 16.09344 0 0
8:52 pm 20:52 Mostly Clear 28 -2 16 -9 59 59 N 8 13 30.15 1021 10 16.09344 0 0
9:52 pm 21:52 Mostly Cloudy 28 -2 12 -11 51 51 NW 8 13 30.12 1020 10 16.09344 0 0
10:52 pm 22:52 Cloudy 28 -2 12 -11 51 51 NW 8 13 30.12 1020 10 16.09344 0 0
11:52 pm 23:52 Cloudy 28 -2 12 -11 51 51 NNW 10 17 30.12 1020 10 16.09344 0 0

Powered by AerisWeather